Theta_e
280 279 277 277 276 276 276 276 277 278 278 278 278 279 278 278 277 275 274 274 274 273 272 271 271 270 270 270 270 269 269 269 269 269 269 270 270 270 270 271 271 271 272 273 273 274 274 274 274 274 274 275 275 275 276 277 279 281 282 283 284 285 287 289 291 294 295 295 295 296 296 296 297 298 299 300 300 303 313 321 322 322 323 323 324
279 277 276 276 276 276 276 277 277 278 278 278 278 278 278 277 276 275 274 273 272 271 270 270 269 269 269 269 268 268 268 268 268 268 269 269 269 269 269 269 270 270 271 272 272 273 273 274 274 274 274 274 274 274 275 275 277 280 282 284 285 285 287 289 292 294 295 295 295 296 296 297 298 298 299 301 301 302 309 318 322 322 323 323 323
277 276 276 276 276 276 277 277 277 277 278 278 278 278 277 277 275 274 272 271 270 269 269 268 268 268 268 268 268 268 267 267 267 267 268 268 268 268 269 268 269 269 270 270 271 272 272 273 274 274 274 274 274 274 275 275 276 278 281 283 285 285 286 289 291 294 295 295 296 296 296 297 297 298 299 300 301 302 306 315 321 322 322 323 323
276 275 275 276 276 276 277 277 277 277 278 278 277 277 276 275 274 272 270 269 268 268 268 268 267 267 267 267 267 267 267 267 267 267 267 268 268 268 268 268 268 268 269 269 270 271 271 272 273 274 275 275 275 275 276 277 278 280 282 283 284 285 286 288 291 294 295 295 296 296 296 297 297 298 299 299 301 302 304 312 319 321 321 322 323
275 275 275 276 276 276 277 277 277 277 277 277 277 276 274 273 272 270 269 268 268 268 268 267 267 266 266 266 266 266 266 266 267 267 267 267 268 268 268 268 268 268 269 269 269 270 271 271 272 273 274 274 275 275 276 277 278 280 282 284 284 285 286 288 291 293 294 295 295 295 296 296 297 297 298 299 301 302 303 309 317 320 320 321 322
274 275 275 276 276 276 276 276 276 276 276 276 275 274 273 271 270 269 268 267 267 267 267 266 266 266 266 266 266 266 266 266 267 267 267 267 267 268 268 268 268 269 269 269 269 270 270 271 271 272 273 273 273 274 275 275 276 277 280 282 284 285 287 289 292 293 294 294 295 295 295 296 296 297 298 299 301 302 303 308 315 319 319 319 320
274 275 275 276 276 276 276 276 276 276 276 275 274 273 272 270 269 268 267 267 266 267 266 266 266 266 266 266 266 266 266 266 267 267 267 267 267 268 268 268 268 269 269 269 270 270 270 271 271 272 272 272 273 273 273 274 274 275 277 279 282 284 287 290 292 293 293 294 294 295 295 296 296 297 298 299 300 302 303 307 312 316 317 318 317
274 275 275 276 276 275 275 275 275 275 275 274 274 272 271 269 268 267 267 266 266 266 266 266 266 266 266 266 266 266 266 267 267 267 267 268 268 268 269 269 269 269 270 270 270 270 271 271 271 272 272 272 273 273 273 274 274 276 277 279 280 283 285 289 292 293 293 293 294 294 295 296 297 298 298 299 300 301 302 307 311 313 315 317 316
274 275 275 275 275 275 275 275 275 274 274 273 272 271 269 267 267 267 266 266 266 266 265 265 266 266 266 266 266 267 267 267 267 268 268 269 270 270 270 271 271 271 271 271 271 271 271 272 272 272 272 273 273 274 274 275 275 276 278 280 281 282 284 288 291 292 292 292 293 293 294 295 296 298 299 299 300 300 301 305 311 313 314 316 316
274 275 275 275 275 275 275 275 274 274 273 272 271 269 267 266 266 266 266 266 265 265 265 266 266 266 266 266 266 267 267 267 267 269 270 271 271 272 273 273 273 273 273 273 273 273 273 273 273 273 273 274 275 275 275 276 277 277 278 279 281 282 284 287 290 291 291 291 292 292 292 293 295 297 299 300 300 301 301 305 310 313 313 314 315
274 274 274 274 274 274 274 274 274 273 272 271 269 267 266 265 265 266 266 265 265 265 265 266 266 266 266 266 266 266 267 267 268 269 270 272 272 273 273 274 274 275 275 275 275 275 274 274 274 274 275 275 275 276 276 277 277 278 279 279 280 282 283 285 288 290 291 291 291 292 292 293 294 296 299 300 301 301 302 304 309 311 311 313 314
274 274 274 274 274 274 274 273 273 273 271 269 267 266 265 265 265 265 265 265 265 265 265 265 265 266 266 266 266 266 266 267 268 269 270 272 273 274 274 275 275 276 276 276 276 276 276 276 275 276 276 275 275 276 276 276 277 278 279 280 281 282 282 283 285 288 290 291 291 291 291 292 293 294 297 300 302 302 302 303 309 311 311 313 314
274 273 273 273 273 273 273 273 273 271 269 268 266 265 265 265 265 265 265 265 265 265 265 265 265 265 265 265 265 266 266 267 268 270 271 272 274 274 275 275 276 276 276 277 277 277 277 277 276 276 276 276 276 276 276 276 277 277 278 279 281 282 283 284 284 286 289 290 290 291 291 291 292 292 294 298 301 304 303 303 308 311 311 311 312
273 273 273 273 272 273 273 272 271 270 268 267 266 266 266 266 266 266 265 265 264 264 264 264 264 265 265 265 265 265 266 267 268 270 272 273 274 275 275 276 276 277 277 277 278 277 277 277 277 277 277 277 277 277 276 276 277 277 278 279 280 281 282 283 285 286 288 289 290 290 290 291 291 291 292 294 297 302 304 304 307 311 311 311 312
273 272 272 272 272 272 272 271 270 268 267 266 266 267 267 267 266 266 265 264 264 264 264 264 264 264 264 265 265 265 266 267 269 271 272 274 275 275 275 275 276 276 276 276 277 277 278 278 278 278 277 277 277 277 277 277 277 277 278 279 281 282 283 283 284 286 287 289 289 290 290 290 290 290 291 292 293 297 302 304 306 310 312 311 312
272 272 272 272 272 272 271 270 268 267 266 266 268 268 268 267 266 265 264 264 263 263 263 264 264 264 265 265 265 266 267 268 270 271 272 274 275 275 275 275 275 275 275 276 276 277 278 278 278 278 278 277 277 278 278 278 277 277 278 279 282 283 284 284 285 286 287 288 288 289 289 289 289 290 291 292 292 293 298 303 307 309 310 310 310
272 271 271 272 271 270 269 268 267 266 266 267 269 269 268 266 265 264 263 263 263 263 263 263 264 264 265 265 266 266 267 269 270 272 273 274 275 275 274 274 274 275 275 276 276 277 277 278 279 279 278 278 278 278 278 278 278 278 278 279 281 282 284 285 285 286 287 287 288 288 289 289 290 290 291 291 292 292 294 301 307 308 309 310 310
271 271 271 271 271 269 268 267 266 266 267 268 268 268 267 266 265 264 263 262 263 263 263 263 264 265 265 266 267 268 268 269 270 271 273 274 274 274 274 274 274 275 275 275 276 276 277 278 279 279 279 278 278 279 279 279 279 279 279 280 281 282 283 284 285 286 286 287 288 288 288 289 289 290 291 291 292 292 293 297 305 308 308 310 310
271 271 271 271 270 268 267 266 266 267 268 268 267 266 266 265 264 263 262 262 262 263 263 263 264 265 267 267 268 269 269 269 270 271 273 273 274 274 274 274 274 274 275 275 276 277 277 278 278 279 279 280 280 279 280 280 279 279 280 281 282 282 282 283 285 286 287 288 288 289 289 289 290 290 291 291 293 294 294 297 304 308 309 310 310
271 271 271 270 268 267 267 266 266 267 268 268 267 266 265 264 263 262 262 262 262 262 263 264 265 266 267 268 269 269 269 269 270 271 273 273 274 274 274 274 274 275 275 276 276 277 277 278 278 279 280 280 281 281 281 281 280 280 280 281 283 284 284 284 284 286 287 288 289 289 289 290 290 290 291 291 292 295 296 298 304 309 309 309 309
271 271 270 269 267 266 266 266 267 267 267 267 268 267 265 263 262 262 262 262 262 262 263 264 266 267 267 268 269 269 269 270 271 271 272 273 273 274 275 275 275 275 276 276 276 277 277 278 278 279 280 280 281 282 282 282 282 281 281 281 282 283 284 284 285 286 287 288 289 289 289 290 290 290 291 291 293 296 298 299 303 309 310 309 309
271 270 269 267 266 266 266 266 267 267 267 267 267 267 265 263 262 262 262 262 262 262 264 265 266 267 268 269 269 269 269 270 270 271 272 272 273 274 275 275 275 276 276 276 276 277 277 278 278 279 280 281 281 282 282 283 282 282 282 282 283 283 284 284 285 286 287 288 289 289 289 290 290 290 291 292 294 298 300 301 304 308 310 310 311
270 269 268 267 266 266 266 267 267 267 267 266 266 265 264 263 262 262 262 261 262 263 264 265 266 267 268 269 269 269 269 270 270 271 271 272 273 274 274 274 275 275 276 276 276 276 277 277 278 278 279 280 281 282 283 283 283 283 283 283 283 284 285 285 285 286 287 288 289 289 290 290 290 291 291 293 297 301 302 302 305 308 309 310 311
269 268 266 266 266 266 267 268 268 267 266 265 265 265 264 262 262 262 262 261 262 263 264 265 266 267 269 269 269 269 269 269 270 271 271 272 273 273 274 274 274 274 275 275 275 276 276 277 277 278 279 281 282 283 283 283 283 283 284 284 285 285 286 286 287 287 288 288 289 290 290 290 291 291 292 294 299 302 303 304 306 308 309 309 310
268 267 266 266 266 267 268 268 268 267 265 264 264 264 263 262 261 262 262 261 262 263 264 266 267 268 269 269 269 269 269 269 270 270 271 272 272 273 273 273 273 274 274 274 275 275 276 277 278 279 280 281 282 284 284 284 284 283 284 284 285 285 286 286 287 287 288 289 290 290 290 290 291 291 293 296 301 303 304 305 307 307 307 307 308
267 266 266 267 267 268 269 269 268 267 265 264 264 263 262 261 261 261 261 261 262 263 265 266 268 268 268 269 269 269 269 269 270 270 271 272 272 272 272 272 272 273 273 274 274 275 276 277 278 278 280 281 283 284 284 284 283 284 284 284 285 285 286 286 287 288 288 289 290 290 290 291 291 292 294 298 302 304 304 305 305 305 305 306 306
266 266 266 267 268 269 269 269 268 267 266 265 264 264 263 262 261 261 261 262 262 264 266 268 268 268 268 268 269 268 269 270 270 271 271 272 272 272 271 271 272 272 273 273 274 274 274 276 278 280 280 281 283 285 285 284 284 284 284 285 285 286 287 287 288 288 289 290 290 290 291 291 292 293 296 300 303 304 305 305 304 303 304 305 304
266 266 266 267 268 268 268 268 268 267 266 265 264 263 264 263 262 262 262 263 264 265 267 268 268 268 268 268 268 268 269 270 270 271 272 272 272 271 271 271 271 272 273 273 272 272 272 274 277 280 281 283 285 285 285 284 284 285 285 286 286 287 288 288 289 289 289 290 290 290 291 292 293 295 298 301 303 304 304 304 304 303 304 304 304
265 265 266 267 267 267 267 267 266 266 266 266 265 263 263 262 262 263 263 264 265 267 268 268 268 268 268 268 268 269 270 270 271 271 272 272 271 271 270 270 271 272 272 272 270 270 271 272 274 275 278 281 284 286 285 285 285 285 286 286 287 288 288 289 289 289 290 290 290 290 291 292 293 297 300 302 303 303 303 304 304 303 303 304 303
265 265 266 266 267 267 266 265 265 264 264 265 265 266 265 264 263 262 263 265 266 266 267 267 267 268 268 268 268 269 270 270 270 271 271 271 271 270 269 269 270 271 272 270 269 268 270 271 271 272 273 275 278 280 282 284 286 287 287 287 288 288 289 289 290 290 290 290 290 291 291 292 295 298 301 302 302 302 303 303 303 303 303 303 302
265 265 265 266 267 266 265 264 263 263 262 262 262 263 265 267 267 265 263 263 264 265 266 266 267 267 267 268 268 268 269 270 270 270 270 270 270 269 268 268 269 270 270 269 268 268 269 269 270 270 271 272 273 274 276 278 281 284 287 289 289 289 289 290 290 290 290 290 291 291 292 293 296 299 301 301 301 301 302 303 303 303 303 303 302
266 265 265 266 266 266 265 264 262 261 261 260 259 259 260 262 265 267 267 265 263 263 264 265 265 266 267 267 267 268 269 269 269 269 269 269 269 268 266 266 267 269 269 268 267 267 268 269 269 269 270 270 271 272 273 273 275 277 281 285 288 290 290 290 290 290 290 290 291 292 293 294 297 299 301 301 301 301 301 302 302 303 303 303 302
267 266 266 266 266 266 265 263 262 261 260 259 258 258 257 256 258 261 265 266 266 265 264 263 263 264 265 266 266 268 268 268 268 268 268 268 268 267 265 264 265 266 266 266 266 267 267 268 269 269 269 270 270 270 271 272 272 274 275 278 282 285 289 290 291 290 291 291 292 292 293 295 298 299 300 301 300 300 301 301 302 302 303 302 302
267 266 266 266 266 265 264 263 262 261 260 259 257 257 257 256 255 255 257 260 262 264 265 264 263 262 263 264 265 267 267 267 267 267 267 267 266 265 264 264 264 264 264 265 266 267 267 268 268 268 269 269 269 270 270 270 271 272 273 274 276 278 282 287 291 291 291 291 292 292 294 296 298 299 299 300 300 300 301 301 302 302 302 302 301
266 266 266 266 266 265 264 263 262 261 260 259 258 258 257 256 256 255 255 255 255 257 260 262 262 261 261 262 264 265 266 266 266 266 266 266 265 264 263 262 261 261 262 264 265 266 267 268 268 268 268 269 269 269 270 270 270 271 271 272 273 275 277 282 288 291 292 292 292 293 294 296 298 299 299 300 300 300 300 301 302 302 302 302 301
266 266 265 265 265 265 263 262 262 261 260 259 259 259 258 257 256 255 255 255 255 255 256 258 260 262 262 261 262 264 264 264 264 264 264 264 263 262 261 260 259 259 261 263 264 265 267 267 268 268 268 269 269 269 269 270 270 270 270 271 272 273 274 278 283 288 291 292 292 293 295 296 297 299 299 299 300 300 301 301 301 302 302 302 301
265 265 265 265 265 264 263 262 261 261 260 260 259 260 259 258 256 255 254 254 255 255 255 256 258 259 260 261 261 262 263 262 262 262 262 262 261 260 260 259 259 259 261 263 264 265 266 267 268 268 268 268 269 269 269 269 269 270 270 270 270 271 273 275 278 283 289 292 293 293 295 296 297 298 299 299 299 300 301 301 301 301 302 302 301
265 265 265 265 264 264 263 262 261 261 260 260 260 260 260 259 257 256 255 254 254 254 255 255 255 256 257 259 260 262 262 261 261 261 260 260 260 259 259 259 259 259 261 263 264 264 265 266 267 268 268 268 268 269 269 269 269 269 270 270 270 270 272 273 274 277 283 290 293 293 294 296 297 298 298 299 299 299 300 300 300 300 300 300 300
264 264 264 264 264 263 263 262 261 261 261 260 260 260 260 260 258 257 255 254 254 254 255 255 255 255 256 258 261 262 260 259 258 258 259 259 259 259 259 259 259 259 261 262 263 264 265 266 266 267 268 268 268 269 269 269 269 269 269 270 270 270 270 271 272 273 276 282 289 293 294 295 296 298 298 298 299 299 299 300 300 300 300 300 300
263 263 264 264 264 263 263 262 261 261 261 260 260 260 260 259 258 256 255 254 254 254 254 254 255 256 256 258 261 261 258 256 257 257 258 258 259 259 259 259 259 259 260 261 262 263 264 265 266 267 268 268 268 268 269 269 269 269 269 269 270 270 270 270 270 271 272 274 279 287 293 295 295 296 298 298 298 299 299 299 299 300 300 300 300
264 264 264 264 264 263 262 262 262 261 261 260 260 260 260 259 258 256 255 254 253 254 254 255 256 257 257 258 261 260 257 256 256 257 257 258 258 258 259 258 258 259 260 261 262 263 264 265 265 266 267 268 268 268 269 269 269 269 269 269 269 269 269 269 269 270 270 271 273 279 287 293 295 296 296 298 298 299 299 299 299 299 300 300 299
264 264 264 263 263 263 262 262 261 261 261 260 260 259 259 258 258 257 256 255 254 254 255 255 257 258 258 258 259 259 258 257 256 257 257 257 258 258 258 258 259 259 260 260 261 262 264 264 265 266 267 268 268 268 268 269 269 269 269 269 269 269 269 269 269 269 269 270 271 273 279 287 293 295 296 297 298 298 298 299 299 299 299 299 299
264 264 263 263 263 263 262 262 261 261 260 260 260 259 258 258 258 258 256 255 255 254 254 255 257 258 259 259 258 259 258 258 257 257 257 257 257 258 258 259 259 259 260 261 262 262 263 264 265 265 267 267 268 268 268 269 269 269 269 269 269 269 269 268 268 268 269 269 270 272 275 281 289 294 296 296 297 298 298 298 299 299 299 299 299
264 263 263 263 262 262 262 261 261 260 260 259 259 259 258 258 258 258 257 256 255 255 255 255 256 257 258 259 258 258 258 257 257 257 257 257 257 258 258 259 260 260 261 261 262 262 263 264 264 265 266 267 268 268 268 268 269 269 269 269 269 269 269 268 268 268 268 269 270 271 273 277 284 292 295 295 296 297 297 297 298 298 298 298 298
263 263 263 262 262 262 262 261 261 260 260 259 259 259 259 258 258 259 258 257 256 256 256 256 256 256 257 257 257 257 256 256 257 257 258 258 258 258 259 259 260 261 261 261 261 262 263 264 264 265 266 267 267 268 268 268 269 269 269 270 269 269 269 268 268 268 268 269 270 271 272 275 281 289 294 295 295 296 296 296 297 298 298 298 298
263 263 262 262 262 261 261 261 260 260 260 259 259 259 258 258 258 259 258 257 257 256 256 257 256 256 256 256 256 256 256 257 257 258 258 259 259 259 260 260 261 262 262 262 261 262 263 264 264 264 265 266 267 268 268 268 269 269 269 270 270 269 269 268 268 268 268 269 269 271 272 274 279 287 293 294 294 295 295 295 296 297 297 297 298
263 263 262 262 262 261 261 260 260 260 260 259 259 259 258 258 258 258 258 258 257 257 257 257 257 257 256 256 256 256 257 257 257 258 259 259 259 260 261 261 261 262 263 263 262 262 263 264 264 264 265 266 267 268 268 268 268 269 269 269 270 269 269 268 268 268 268 269 270 270 272 274 279 287 292 294 294 294 295 295 295 295 296 296 296
262 262 262 262 261 261 260 260 260 260 259 259 259 258 258 258 258 258 259 258 258 258 258 258 257 257 257 257 257 257 257 257 258 258 259 260 260 261 261 262 262 262 263 264 263 263 263 264 264 264 265 266 267 268 268 268 268 269 269 269 270 269 269 268 268 268 268 269 269 270 271 273 278 284 290 293 294 294 294 294 294 294 294 295 295
262 262 262 261 261 261 260 260 260 260 259 259 259 258 258 258 258 258 258 258 258 258 258 258 258 257 257 257 258 258 258 258 258 259 259 260 260 261 261 262 262 263 263 264 263 263 263 263 264 264 265 265 266 267 268 268 268 268 269 269 270 269 269 268 268 267 268 268 269 270 271 272 275 279 283 288 291 293 294 294 294 294 294 294 294
262 262 262 261 261 261 260 260 260 259 259 259 259 258 258 258 258 258 258 258 259 259 258 258 258 257 257 257 258 258 258 258 258 259 259 260 260 261 261 262 262 263 263 263 263 263 263 263 264 264 265 265 266 267 268 268 268 268 269 269 269 269 269 268 268 267 267 268 268 269 270 271 272 274 276 280 284 289 291 293 293 293 293 294 294
261 261 261 261 261 260 260 260 260 259 259 259 259 259 258 258 258 258 258 258 259 259 258 258 258 258 257 257 257 258 258 258 258 259 259 260 260 261 261 262 262 262 263 263 263 264 264 264 264 264 265 265 266 267 268 268 268 268 268 269 269 269 269 268 268 267 267 267 267 268 269 269 270 271 272 274 276 280 284 288 292 293 293 293 293
Wind_Speed
14 12 10 8 8 7 7 8 9 11 13 14 17 19 20 22 24 25 27 29 30 32 33 32 31 30 31 31 29 28 29 29 28 26 26 27 26 27 28 27 28 30 30 30 29 29 31 31 32 32 33 34 35 34 34 34 34 34 34 35 33 36 36 26 18 18 18 19 22 24 29 34 35 36 38 39 37 36 40 54 55 52 54 52 54
13 11 8 7 7 6 6 8 9 11 12 15 17 19 21 22 23 25 27 29 31 31 31 31 29 27 28 29 28 27 28 29 28 25 26 28 28 28 27 27 28 29 29 30 29 29 29 30 31 31 31 33 34 35 35 34 35 36 33 32 31 34 37 32 22 15 14 17 20 23 29 31 33 36 35 33 33 36 36 46 53 51 54 54 53
12 9 7 6 5 5 6 7 9 11 12 15 17 18 21 22 24 26 27 28 30 30 30 31 31 29 28 29 29 28 29 29 27 26 27 29 30 29 29 28 29 29 29 30 30 29 29 30 30 31 30 31 32 34 34 34 34 36 34 32 32 34 39 39 30 19 12 13 17 20 26 30 32 35 34 32 32 33 35 38 50 51 52 54 52
11 9 7 5 3 4 5 7 9 11 13 15 17 19 21 23 25 26 26 27 28 29 30 32 33 31 28 29 29 29 29 30 29 28 28 29 31 31 30 30 30 30 30 30 30 30 29 29 30 30 29 29 29 29 30 30 31 33 33 32 32 34 38 41 38 29 16 12 16 20 25 28 31 34 32 31 32 32 35 34 43 50 50 53 53
10 8 5 3 2 3 5 7 9 11 13 15 17 19 21 23 25 25 26 27 28 29 32 33 32 30 28 29 30 30 31 31 31 31 30 30 31 31 32 32 31 31 30 30 30 30 30 30 30 29 28 28 28 28 29 30 29 29 30 29 31 35 38 40 39 34 23 14 15 20 24 28 31 34 31 29 30 31 34 34 35 47 46 49 51
10 7 4 3 2 3 5 7 9 12 14 16 18 20 21 23 24 25 26 27 29 31 33 33 32 32 31 31 32 33 34 32 32 32 31 31 31 32 32 33 32 32 31 30 30 29 30 30 30 30 29 29 30 31 33 34 32 32 31 29 29 32 36 38 36 31 24 19 17 19 23 27 29 31 30 28 27 26 30 33 30 41 44 42 43
9 6 4 2 1 3 5 8 10 13 14 16 18 20 21 22 24 26 26 28 29 31 33 33 33 34 35 35 35 35 34 33 32 31 31 31 31 31 31 32 32 31 31 31 30 30 30 31 31 30 29 30 31 30 32 33 32 33 33 31 30 30 33 34 29 23 21 19 17 17 20 24 26 28 29 28 26 26 26 25 20 26 37 40 39
9 7 5 2 1 3 5 8 10 12 14 16 18 19 21 22 23 25 26 27 29 30 31 33 34 35 35 35 34 32 30 30 29 29 30 30 30 31 31 31 33 33 33 33 32 31 31 31 33 33 31 31 32 31 31 31 30 31 31 30 29 29 31 31 23 19 18 14 13 15 16 17 21 24 25 22 20 21 23 23 16 15 26 37 43
9 7 5 3 1 2 5 8 10 12 13 16 17 18 20 22 23 25 25 27 28 29 29 31 32 33 32 30 29 27 27 28 27 27 29 29 29 30 29 29 30 31 32 33 32 31 32 32 33 34 33 33 33 34 34 34 32 32 31 28 26 26 28 29 22 17 13 9 9 13 12 11 14 16 16 16 16 18 23 26 21 19 22 29 40
10 8 6 3 0 2 5 7 9 11 13 15 17 18 19 21 22 24 25 26 27 28 29 29 28 27 28 28 27 27 27 28 28 30 32 32 32 32 31 30 30 29 30 31 30 29 31 32 32 33 34 34 34 35 36 38 38 37 37 33 29 26 26 26 22 17 12 8 7 10 9 8 12 15 15 19 23 23 23 25 20 21 20 19 25
11 8 6 3 1 3 5 7 9 10 13 14 16 17 19 20 22 23 25 26 26 27 27 26 25 24 26 28 28 28 30 30 32 35 36 36 36 36 35 33 32 32 33 32 30 28 29 32 33 34 35 34 35 35 35 38 39 39 40 40 38 35 32 28 23 18 14 10 8 10 9 8 13 19 20 21 23 22 23 26 21 16 13 10 12
11 8 6 3 1 3 5 6 8 10 12 14 15 17 18 19 21 23 24 26 27 26 25 24 25 24 25 28 29 31 34 34 34 37 38 37 37 37 35 34 33 32 33 34 31 28 29 32 33 35 36 34 33 33 33 35 37 38 40 40 41 41 40 37 32 25 19 13 10 13 13 11 14 19 21 21 22 23 24 27 24 18 14 10 9
11 9 6 4 2 3 4 5 8 10 11 13 15 16 18 20 21 23 25 26 26 25 25 25 26 26 28 31 32 34 38 37 36 37 38 37 37 36 35 34 34 32 32 34 32 29 31 35 34 34 35 35 34 33 32 33 34 36 38 39 40 40 41 42 41 38 33 22 14 16 19 17 17 20 22 22 21 22 22 23 26 24 22 15 15
11 9 6 4 3 2 3 5 7 9 11 13 15 16 18 20 22 23 25 26 26 27 27 28 28 28 31 34 35 37 41 39 37 37 38 37 37 35 33 33 33 32 32 33 31 28 30 33 32 31 32 33 34 33 32 32 31 32 33 35 37 37 37 39 40 40 40 33 24 23 26 25 23 24 27 27 25 24 22 22 27 26 30 28 28
11 9 7 4 3 2 2 4 6 8 10 13 15 17 19 21 23 24 25 26 27 27 28 30 31 32 33 36 37 40 42 39 37 38 37 37 36 34 32 32 33 33 32 32 32 31 28 28 28 30 31 32 32 32 32 31 30 30 33 33 33 33 32 35 38 37 37 36 31 30 31 32 32 29 30 30 30 31 28 30 34 32 36 35 29
11 9 7 5 3 1 1 3 5 8 10 13 15 18 20 21 23 24 25 27 28 28 28 30 32 33 34 35 37 40 42 38 36 38 38 37 35 32 31 32 32 33 33 31 32 33 32 30 28 28 29 31 31 31 31 31 30 30 31 31 30 29 29 31 34 36 36 35 33 33 35 38 36 32 31 31 32 35 36 34 38 35 28 23 17
11 9 7 5 3 2 0 2 5 8 10 13 15 18 20 22 23 23 25 27 28 29 30 30 31 32 33 34 35 38 41 38 35 37 37 36 35 32 31 32 32 32 33 32 31 31 32 32 29 26 26 28 30 32 32 32 31 30 29 28 27 27 27 27 30 33 35 35 34 35 37 38 37 35 35 36 37 39 36 28 28 29 19 15 11
12 10 7 6 4 2 1 2 4 7 10 12 15 17 19 21 22 23 24 26 28 30 31 31 31 30 30 32 32 33 37 38 37 36 35 35 35 33 31 31 31 31 32 32 32 32 32 33 33 31 28 27 30 32 32 32 31 30 28 26 24 25 26 25 26 29 32 33 34 36 39 39 38 37 37 38 40 41 37 28 27 25 15 13 12
12 10 8 6 5 3 2 3 5 7 9 12 14 16 18 20 22 23 23 25 28 29 30 31 30 29 29 31 29 29 35 38 36 34 34 35 35 34 31 30 30 32 33 33 33 33 32 33 34 35 34 32 32 34 33 32 31 29 27 25 23 24 26 26 26 26 26 27 30 33 34 35 34 34 35 36 39 42 42 38 35 30 19 14 15
11 10 8 6 5 4 3 4 5 7 9 11 13 15 18 19 21 23 24 25 27 28 29 29 28 30 34 32 27 28 34 37 34 33 34 35 35 36 33 29 29 31 32 31 31 33 33 32 33 35 35 34 34 35 34 33 32 29 28 27 24 22 22 24 26 27 26 25 26 27 28 29 30 30 33 36 39 41 44 43 40 38 30 24 23
12 10 8 6 6 4 4 5 5 6 8 10 12 14 17 19 20 22 23 25 26 27 27 26 28 34 35 28 25 28 31 33 33 34 35 36 36 37 34 29 30 32 31 30 31 33 32 31 32 34 32 31 33 34 34 35 35 32 31 31 28 25 23 23 25 27 27 26 25 25 25 25 27 29 31 35 38 39 40 42 43 44 40 37 33
12 10 8 7 6 5 5 5 5 6 7 10 12 14 16 18 20 21 22 24 24 24 25 27 32 35 30 23 24 28 29 31 33 34 35 37 37 37 36 34 35 35 31 30 31 32 32 32 33 33 32 31 32 32 32 34 35 33 33 34 33 31 30 27 25 25 25 24 23 22 22 23 24 26 30 34 37 37 37 40 45 45 42 48 53
12 10 9 7 6 6 6 4 5 7 8 10 12 14 17 18 20 21 21 23 24 24 26 30 33 30 24 22 25 28 28 31 33 34 37 39 38 38 38 38 38 35 31 30 31 32 33 33 34 34 33 32 32 31 29 31 32 31 31 33 33 33 32 30 28 27 25 23 21 19 19 21 23 25 30 33 34 35 38 40 44 43 40 48 57
13 11 9 7 6 7 5 4 6 8 10 11 13 14 17 18 20 21 20 22 23 22 25 30 29 24 23 25 27 29 31 33 33 34 38 40 39 39 40 39 38 35 32 31 32 33 34 36 36 37 35 34 32 30 29 29 30 30 29 30 31 31 31 28 27 26 24 22 19 17 18 22 24 26 31 33 33 36 38 40 43 43 40 42 38
14 11 9 7 7 6 5 5 7 9 11 13 13 15 17 18 19 20 20 21 21 21 26 29 25 21 23 26 27 30 34 34 33 36 40 41 39 39 40 38 37 36 33 33 33 35 38 41 41 41 39 37 33 31 28 28 29 29 28 28 28 28 27 25 23 23 22 20 18 17 19 24 28 29 33 34 33 35 36 38 39 36 33 34 31
14 12 10 8 7 6 4 5 8 10 11 13 14 14 15 16 18 19 19 19 21 24 28 27 22 21 23 24 26 30 34 33 33 38 42 41 39 40 40 37 36 35 33 33 35 38 41 42 40 38 35 30 27 26 25 25 25 26 27 27 28 27 26 24 23 22 22 21 18 18 21 24 27 29 32 32 32 33 33 33 30 25 27 31 30
15 13 11 9 8 6 5 6 8 10 12 14 15 14 14 15 17 18 18 20 22 25 26 24 21 22 24 25 27 29 31 32 34 38 43 42 40 41 40 36 35 34 32 33 36 38 39 37 31 28 28 26 24 23 22 22 21 22 23 24 25 26 26 26 25 24 23 21 18 19 21 23 24 28 30 29 31 31 32 33 28 25 30 34 28
16 14 12 10 9 7 6 6 8 10 13 15 16 14 14 16 17 18 19 20 23 24 24 22 22 23 24 27 28 28 27 30 35 40 42 41 39 39 38 35 34 34 33 36 38 36 34 32 26 18 18 20 20 19 18 18 17 18 20 20 21 22 23 26 27 26 25 22 19 19 20 20 22 26 27 27 29 30 32 33 30 27 30 30 22
17 15 13 11 10 9 7 7 8 9 12 15 16 13 12 13 15 17 18 19 20 22 23 23 24 25 25 26 28 26 25 31 37 40 41 41 40 40 37 35 34 33 34 37 36 30 26 27 26 22 18 14 9 8 11 14 15 16 18 19 19 20 21 23 24 24 23 21 19 20 20 19 21 24 23 24 27 31 32 32 31 30 29 26 19
18 16 14 13 11 10 8 7 7 8 10 13 15 15 13 11 10 12 17 19 19 20 21 21 24 25 25 26 26 25 27 33 37 39 39 40 40 40 39 36 35 34 34 34 30 25 23 22 22 22 21 18 14 10 7 8 10 12 15 17 18 19 19 19 19 19 19 19 20 20 20 19 20 20 21 22 23 28 32 31 31 31 27 21 15
20 17 15 14 12 10 8 7 7 7 8 9 12 15 15 14 12 10 13 17 19 19 19 20 22 23 24 25 26 26 29 34 36 37 39 39 40 40 39 38 36 34 33 30 25 23 23 20 19 21 21 17 16 16 16 15 12 10 10 12 15 16 16 16 17 18 18 18 20 21 20 18 19 19 21 23 22 25 29 30 30 31 28 23 16
21 19 16 15 13 10 8 7 6 6 7 7 9 11 13 15 16 15 15 17 18 17 17 20 22 22 22 24 26 28 31 34 35 36 37 38 39 39 39 39 36 34 33 31 26 22 21 18 17 19 20 18 17 17 18 17 17 17 15 10 10 13 16 17 18 19 19 19 20 20 19 19 20 20 22 24 23 22 25 26 26 27 27 25 22
21 19 18 16 13 11 8 6 5 5 5 6 7 8 9 10 13 16 18 20 20 17 16 20 23 24 24 25 26 29 31 33 34 35 36 37 38 39 41 42 39 35 33 30 23 19 19 18 18 19 19 18 18 19 18 18 18 18 18 16 14 12 14 18 21 21 21 21 22 20 18 19 21 20 19 23 24 21 21 24 26 26 24 20 19
20 19 17 16 14 11 8 6 5 3 4 5 6 7 7 7 9 13 17 20 21 21 21 24 25 24 24 25 27 29 32 33 33 34 36 37 37 38 45 50 49 45 40 31 22 18 18 17 18 19 19 19 19 19 19 19 19 18 18 17 17 19 19 16 18 22 21 21 21 20 18 19 21 19 16 19 23 22 20 22 24 23 19 16 16
20 19 17 16 14 11 8 6 4 2 3 4 5 7 7 8 9 10 13 16 18 21 24 27 28 25 24 25 28 30 32 33 32 32 35 37 37 41 49 51 48 47 44 35 26 22 20 18 17 18 18 19 21 21 19 19 19 19 19 19 18 19 20 18 14 17 20 19 19 18 17 17 20 21 17 16 19 19 18 19 22 22 20 20 19
21 19 18 16 13 11 9 6 3 2 2 3 5 6 7 8 9 10 12 13 15 18 22 26 28 27 26 27 30 31 32 32 31 31 33 35 36 40 42 39 37 39 38 33 27 25 23 22 21 20 21 21 22 22 21 20 19 19 19 20 20 19 18 18 18 17 17 18 17 16 16 17 19 21 18 16 18 21 21 21 22 23 24 24 22
21 20 18 16 14 11 9 6 3 2 2 3 4 6 8 9 10 10 12 14 15 16 20 23 26 27 28 30 32 32 33 33 32 32 34 34 36 39 37 34 37 39 35 29 28 27 25 26 26 26 25 24 23 24 24 21 20 21 21 21 20 20 19 20 21 21 17 16 16 14 15 17 19 21 20 16 15 19 23 24 23 23 25 27 25
20 19 18 16 14 11 9 6 4 2 2 2 5 7 9 10 11 11 12 14 15 16 19 22 22 23 25 28 30 31 33 35 35 36 37 36 36 39 38 37 42 42 34 28 29 28 26 28 30 30 29 29 27 27 26 24 22 22 22 22 21 22 23 23 23 25 20 13 14 15 15 16 19 22 22 19 17 17 20 23 23 21 22 23 22
19 18 17 16 14 11 9 6 4 3 2 3 5 7 8 10 11 12 14 15 15 17 18 20 21 22 24 26 29 30 33 33 31 33 35 35 34 36 36 38 44 44 36 32 35 34 28 29 32 31 31 32 31 30 29 28 25 23 22 23 23 23 23 23 23 23 23 19 12 13 15 16 17 21 23 22 20 20 19 21 24 23 20 19 22
21 19 17 15 14 11 8 6 4 3 2 3 5 6 8 9 10 12 13 13 15 16 17 19 21 23 24 25 26 27 28 28 27 28 31 32 33 35 35 35 41 42 38 37 40 38 33 33 35 34 33 33 33 33 32 31 30 28 24 21 21 22 21 22 22 20 21 24 22 12 12 16 18 20 22 23 23 23 22 22 24 25 24 23 25
22 20 17 15 13 11 8 6 4 3 2 3 4 5 6 8 9 10 11 12 13 16 17 18 20 22 23 23 23 23 24 25 25 27 28 29 30 32 32 33 37 40 39 39 41 40 38 38 39 37 35 35 35 35 34 32 33 33 26 20 20 21 21 21 24 24 23 25 27 23 13 13 18 19 20 23 25 25 25 24 25 26 26 26 25
22 20 18 16 13 11 9 7 4 3 2 2 3 4 5 7 8 9 11 12 13 15 17 19 21 23 23 22 22 23 25 26 26 27 29 30 31 32 33 34 37 38 38 37 38 38 37 39 40 38 36 36 37 37 35 34 34 34 30 25 23 24 23 24 27 29 28 27 27 28 24 14 15 20 21 23 24 24 24 24 25 25 24 23 23
22 20 18 16 14 11 9 7 5 3 2 1 2 3 4 6 7 9 10 11 12 14 16 19 21 23 24 24 23 25 27 28 28 28 29 30 32 33 34 36 38 38 37 38 39 37 36 37 39 38 36 36 37 37 36 35 34 34 33 32 30 28 29 31 32 32 33 33 30 29 28 22 14 18 22 23 23 23 23 23 24 24 23 22 23
22 21 19 16 14 11 9 7 5 4 3 2 2 3 4 5 6 8 10 11 12 13 15 17 19 21 23 24 25 26 27 28 28 28 29 31 32 33 35 37 39 39 39 40 40 39 38 38 40 39 37 37 40 39 38 37 36 35 35 35 35 34 35 37 37 35 34 33 31 27 25 24 18 14 18 21 21 21 21 21 22 22 21 21 21
23 21 19 17 14 11 9 7 5 4 3 2 1 1 3 4 6 8 10 11 12 13 14 16 18 19 21 23 24 25 26 26 27 28 29 30 32 33 35 37 39 40 40 39 38 39 40 40 41 41 39 39 41 42 41 40 39 37 36 36 36 37 38 38 37 36 34 31 29 27 25 23 20 14 14 19 20 19 19 20 23 23 21 20 20
23 21 19 17 14 12 10 8 6 5 4 2 1 1 2 4 5 7 9 10 12 13 15 16 17 18 20 21 22 24 25 25 26 28 29 30 32 34 35 37 39 40 40 38 37 38 40 41 41 41 40 39 40 43 44 43 41 41 40 39 38 39 40 38 37 36 34 31 29 28 25 22 19 16 14 16 19 19 19 20 22 22 22 22 22
22 20 18 16 14 12 10 8 7 5 4 3 2 1 2 3 5 7 8 9 11 13 14 16 17 18 19 20 21 22 24 24 25 27 28 30 31 33 35 37 38 39 40 40 38 38 40 41 42 41 40 39 40 42 44 45 44 43 43 43 43 44 44 42 40 38 35 31 29 28 24 21 17 14 13 17 18 17 17 19 20 21 22 22 23
22 20 18 16 14 12 10 9 7 6 4 3 2 2 2 3 5 6 7 9 10 12 14 15 16 17 18 19 20 21 22 23 24 26 27 29 30 32 34 35 37 38 39 40 40 39 40 41 42 42 42 40 39 40 44 46 46 46 46 46 47 48 47 45 43 41 37 33 31 30 26 21 17 10 6 14 18 18 17 17 19 21 22 21 22
22 20 18 16 14 12 10 9 7 6 5 4 3 2 2 3 4 6 7 8 9 11 13 15 16 17 18 19 20 21 22 23 25 26 27 28 29 31 32 34 35 37 38 39 40 40 40 41 41 42 42 41 38 38 43 47 47 47 49 49 48 48 49 48 47 45 42 36 33 33 31 27 23 17 10 1 10 17 19 19 19 20 21 20 20
21 19 17 16 14 12 11 10 8 6 5 4 3 2 2 3 4 5 6 7 9 10 12 13 15 16 17 18 19 21 22 23 24 25 26 27 28 30 31 33 34 36 37 38 39 39 39 40 41 41 43 43 40 36 39 45 49 49 49 50 50 50 50 50 50 49 46 40 35 33 34 33 30 27 23 16 6 4 12 17 20 21 20 19 20
21 19 17 16 14 13 12 10 8 7 6 4 3 2 1 2 3 4 6 7 8 10 11 12 13 15 16 17 18 19 21 22 22 23 24 25 26 28 30 31 33 35 36 37 38 39 39 40 41 41 43 44 42 36 35 41 48 50 49 50 51 51 51 51 50 49 48 44 39 35 34 34 34 34 31 27 21 14 6 5 13 19 20 20 20
Wind_Direction
216 223 229 242 258 272 290 308 321 326 328 328 328 329 327 325 323 320 318 317 317 317 316 315 311 308 307 306 303 299 298 299 298 295 291 289 286 283 285 285 283 282 281 278 273 271 270 269 267 265 262 263 265 266 265 263 262 258 253 251 251 254 256 255 259 261 254 254 262 268 272 278 279 277 280 278 282 286 254 224 217 218 216 217 219
212 222 231 242 260 281 301 317 326 328 329 330 329 329 327 325 323 321 319 318 318 318 317 316 313 307 305 306 304 300 298 298 298 295 292 292 289 287 287 285 283 283 282 279 276 274 272 272 271 269 265 263 264 264 262 261 263 262 257 254 253 255 258 258 257 259 259 255 259 269 272 275 278 276 278 279 279 288 269 229 214 214 214 213 215
210 220 231 244 265 293 310 321 327 328 330 329 330 329 327 325 324 321 319 318 319 319 316 316 315 311 306 305 304 302 300 300 297 294 293 292 289 288 287 284 282 281 281 280 278 275 274 273 273 271 268 266 264 263 261 259 259 260 261 260 257 257 260 261 259 255 259 259 257 267 272 273 276 276 280 282 277 284 282 244 214 210 212 210 212
209 218 227 244 272 298 312 323 326 328 332 331 330 329 328 328 326 322 319 317 317 317 316 317 316 312 307 304 303 301 300 301 299 295 293 291 289 287 286 283 280 278 278 278 277 276 274 272 272 272 271 269 268 267 264 262 258 255 256 257 258 259 262 263 261 254 255 264 257 260 270 273 276 279 282 287 280 279 286 261 216 204 207 205 205
207 214 219 233 275 302 317 325 330 334 336 333 332 331 328 327 325 322 319 317 316 316 318 318 315 310 305 303 304 303 301 301 300 295 290 289 287 284 283 282 280 278 276 275 275 274 274 273 271 272 273 275 276 277 276 276 274 268 261 259 259 260 264 265 261 253 251 259 261 262 269 272 275 279 281 285 283 279 285 273 221 196 199 200 198
201 205 207 218 275 313 324 330 336 339 337 334 332 328 325 324 323 321 319 318 318 319 320 319 316 312 309 306 306 305 304 301 299 294 289 287 286 283 282 281 279 278 275 272 271 271 271 271 270 269 272 274 274 274 274 275 277 277 274 271 268 265 266 264 256 250 250 256 264 267 268 270 273 278 277 276 276 276 282 277 234 194 188 190 192
195 193 192 205 282 317 327 336 341 340 337 334 329 325 323 323 321 320 320 320 320 321 321 319 316 314 313 312 311 309 304 300 297 294 290 289 287 285 284 282 279 277 273 269 267 267 266 265 265 266 267 269 270 269 269 270 271 271 270 271 273 271 270 264 250 242 250 255 259 262 263 266 268 271 274 273 271 269 272 275 250 195 180 177 178
186 181 179 186 271 317 335 343 344 339 334 329 326 324 322 320 319 320 321 322 323 323 321 318 317 316 315 314 313 309 302 298 296 294 292 291 289 286 284 280 277 274 272 268 263 261 262 260 261 261 260 263 266 264 264 266 267 268 265 264 266 269 273 270 253 240 245 247 254 261 264 268 266 266 269 269 267 266 265 264 251 205 178 171 167
178 175 173 174 234 331 348 348 343 337 331 326 323 322 320 318 320 323 324 325 324 322 320 319 318 317 314 312 311 307 301 297 295 294 294 292 291 287 283 279 275 270 269 266 260 257 259 258 259 259 257 262 265 261 261 263 263 265 265 263 262 262 267 267 256 243 242 240 253 265 269 272 268 267 263 254 251 254 261 262 243 204 180 168 164
173 171 169 169 194 358 357 350 344 335 327 324 321 319 319 320 323 326 327 326 324 322 322 321 318 313 311 310 308 305 302 298 296 296 297 296 295 293 289 285 281 275 272 267 261 258 259 257 258 258 257 264 269 264 261 263 262 262 262 262 262 259 262 265 258 245 240 241 251 257 263 266 263 265 261 252 251 248 253 263 241 196 178 169 165
169 166 165 160 117 15 2 350 341 331 324 322 321 319 321 323 326 328 327 326 325 324 322 319 314 311 309 309 308 304 300 299 299 300 299 299 298 297 294 289 284 280 277 272 265 260 259 258 259 260 257 260 267 266 264 265 264 263 261 260 259 257 258 265 266 255 242 237 241 246 257 263 261 267 266 256 253 245 244 254 240 196 176 171 163
164 163 161 145 92 24 5 348 336 328 323 322 321 323 325 327 329 329 328 327 327 324 320 316 313 310 308 307 306 303 300 300 302 302 302 302 301 299 296 291 287 282 278 276 270 262 261 260 259 262 260 256 258 259 260 263 264 265 264 260 258 256 254 257 261 259 253 244 237 243 250 257 262 266 267 261 253 241 240 252 244 204 178 180 166
161 160 155 135 96 35 5 343 329 325 325 324 325 327 329 330 332 331 330 329 326 322 319 316 313 311 310 309 306 304 303 304 304 304 305 305 304 302 299 293 289 283 278 278 270 257 258 263 262 262 261 257 255 252 253 259 262 265 264 261 259 257 254 253 253 254 254 248 238 243 246 251 259 259 263 269 262 242 233 248 245 211 179 180 176
160 155 147 135 107 47 0 334 326 325 328 331 331 332 332 334 335 335 332 329 325 321 319 317 314 312 313 311 308 306 307 307 307 308 308 308 307 306 302 296 293 290 286 285 279 263 257 259 260 261 258 255 252 248 247 253 257 261 263 260 257 255 254 253 250 251 252 248 242 246 248 251 255 259 267 275 276 262 236 233 245 219 178 176 179
157 152 145 138 114 61 347 328 326 328 334 337 336 335 336 337 337 337 333 327 323 322 319 316 315 314 315 313 309 308 309 309 309 311 312 312 311 309 304 300 298 296 294 292 289 281 270 259 255 258 257 252 248 246 246 248 250 255 260 260 256 251 249 248 246 246 249 248 245 247 251 254 256 261 270 274 279 278 258 238 241 222 180 170 175
155 151 147 138 123 115 317 330 333 335 340 341 339 338 338 338 339 337 331 326 324 321 317 315 316 316 316 314 310 308 310 310 310 313 315 315 314 312 308 305 302 298 295 293 290 286 280 269 259 255 254 250 248 247 248 249 249 251 255 259 259 254 249 245 244 244 246 248 248 249 253 257 259 262 267 270 275 280 273 253 237 219 183 159 168
156 153 147 142 144 163 232 344 347 347 346 343 340 340 339 338 338 336 330 325 322 320 316 315 316 316 314 314 312 309 310 312 313 315 317 317 317 315 311 307 303 299 297 295 292 289 284 277 267 257 251 248 248 249 248 248 250 250 252 257 261 260 255 250 247 246 247 249 250 251 255 258 260 262 265 270 274 276 277 264 231 214 188 157 166
158 153 148 153 159 157 128 22 3 356 350 345 342 340 339 338 336 334 329 322 318 318 317 315 316 315 314 314 312 308 308 313 316 316 318 319 319 317 313 308 303 300 299 297 293 289 285 280 273 264 258 252 250 250 249 247 249 248 248 252 253 255 255 253 251 249 247 249 249 251 255 257 258 262 264 272 277 274 272 263 230 212 190 159 162
157 150 152 162 161 146 110 48 21 3 350 344 343 341 339 337 335 333 328 322 319 318 318 317 316 318 319 317 313 309 310 313 316 318 320 321 320 318 313 307 303 300 298 296 293 289 286 282 275 268 265 261 255 251 248 246 246 246 248 249 244 244 248 248 250 250 246 245 245 246 251 252 254 261 266 273 279 273 266 256 231 210 189 162 159
151 150 159 165 156 135 98 60 27 5 350 344 343 343 340 337 334 332 328 325 322 319 320 319 317 320 324 321 316 315 315 315 316 320 322 322 321 320 315 305 300 299 297 295 294 293 290 286 279 272 269 267 262 257 250 246 244 243 246 249 245 244 246 245 247 249 247 246 244 243 247 252 256 264 270 274 277 271 261 249 229 208 189 166 160
148 155 165 162 149 125 89 64 27 4 354 347 344 344 343 339 334 332 329 326 323 321 322 321 318 321 324 320 316 319 321 319 320 323 324 324 323 321 318 309 303 301 300 297 296 295 292 289 283 276 273 269 266 263 255 248 245 242 242 246 248 249 250 250 250 249 247 247 248 248 251 257 262 268 272 272 271 262 250 242 229 211 190 169 162
150 159 165 155 139 113 84 61 23 4 358 354 348 345 345 342 337 336 332 328 325 322 323 324 323 323 323 320 320 322 323 324 325 325 326 326 325 324 321 316 312 308 303 299 298 297 293 289 285 281 278 273 269 266 259 250 246 243 242 244 246 246 246 249 250 250 247 244 246 251 253 257 263 267 268 268 263 249 237 234 229 217 197 176 169
152 162 162 148 129 103 80 54 21 8 3 0 354 348 346 343 341 340 335 331 328 324 325 328 325 321 320 322 324 325 325 327 329 329 329 328 326 326 324 320 317 313 307 301 300 298 294 289 285 282 280 276 271 267 261 251 245 244 244 244 244 243 243 243 242 243 244 242 243 247 249 252 258 260 261 262 254 236 225 226 226 220 205 185 176
155 161 155 140 122 99 77 47 22 13 7 5 359 352 347 343 341 342 339 334 329 322 323 325 322 321 325 326 326 328 328 329 331 332 332 330 328 328 327 324 322 317 310 304 300 297 292 288 284 281 278 275 272 269 262 251 244 243 245 244 242 241 241 240 238 239 240 239 239 239 242 247 249 252 257 255 241 225 218 217 219 217 205 189 178
156 157 149 135 117 97 79 47 25 15 11 8 2 354 347 341 339 340 339 335 328 320 321 324 323 326 330 327 326 329 328 330 333 334 333 332 331 331 330 328 325 321 315 308 302 297 293 288 284 280 277 274 271 268 261 251 244 244 246 245 244 242 240 238 239 241 239 236 234 232 239 247 247 251 258 251 230 216 210 207 210 212 199 179 167
155 153 145 133 117 99 78 49 29 17 11 8 4 357 348 339 336 337 336 333 328 322 322 325 328 332 330 326 327 328 327 330 334 334 336 336 334 333 333 331 328 325 320 315 310 306 302 295 284 275 273 271 266 260 251 242 240 244 245 243 242 241 237 233 233 235 236 234 233 233 240 249 254 259 260 243 217 205 201 195 193 192 177 162 152
153 150 141 130 117 99 72 44 26 15 9 6 5 3 357 347 340 337 335 331 326 322 323 328 333 333 329 328 328 326 325 331 335 336 338 339 336 335 336 334 331 330 329 327 325 319 315 312 297 274 263 264 264 257 242 231 233 241 242 242 242 240 235 229 227 231 236 237 236 240 247 252 260 264 254 227 204 197 195 186 175 172 170 162 150
152 145 136 124 111 94 72 46 26 13 5 2 2 3 5 359 348 340 338 333 324 323 327 332 334 333 331 330 328 325 327 335 339 339 340 340 338 339 339 337 336 336 336 338 336 327 326 335 337 312 280 268 259 246 227 220 229 240 241 241 244 245 239 231 226 229 236 240 243 249 252 255 261 259 240 211 195 193 192 183 174 171 169 163 154
149 141 132 122 109 94 77 54 35 18 6 1 360 0 3 1 348 341 342 340 331 329 333 334 335 336 335 334 331 328 332 338 339 340 341 342 342 344 345 341 339 340 342 344 341 334 335 349 358 355 345 329 295 244 217 217 226 236 242 244 243 243 240 233 228 229 234 238 245 250 251 255 260 249 223 200 192 190 188 183 175 170 167 164 159
145 138 131 121 110 99 83 65 47 28 14 5 1 359 1 4 358 345 340 338 337 337 338 337 338 339 339 338 336 334 335 338 339 341 344 345 347 350 351 347 343 345 350 350 347 347 350 355 357 358 358 358 355 346 318 277 248 236 238 240 240 240 237 231 229 231 235 238 242 247 250 255 254 235 206 192 189 186 186 184 175 166 166 165 160
145 138 131 122 114 106 90 73 57 40 29 16 6 2 359 1 11 11 352 342 342 343 342 342 344 344 343 341 339 339 340 341 343 346 348 348 351 354 355 352 350 351 354 354 357 0 360 357 357 357 355 356 356 353 344 335 323 304 272 245 234 235 236 235 234 234 236 240 243 246 249 249 245 226 199 186 183 180 181 183 176 168 168 167 161
146 139 134 126 118 112 99 81 65 46 35 24 13 7 358 352 355 5 9 5 356 347 343 346 348 349 349 347 344 345 346 347 349 350 351 351 354 357 359 359 356 354 356 2 7 6 358 355 357 355 352 352 352 347 345 343 338 333 326 303 262 239 231 235 241 239 237 240 241 244 246 241 234 223 199 182 176 176 177 178 175 171 169 167 165
148 141 136 130 123 117 109 90 72 51 34 21 9 4 359 345 335 337 350 3 8 8 6 3 358 352 350 350 350 351 351 352 353 353 354 356 356 357 1 5 4 2 3 5 4 358 352 353 356 352 349 349 348 345 344 342 338 334 332 326 315 296 263 242 236 233 235 239 238 240 243 233 223 218 204 183 173 173 177 177 174 171 169 167 166
148 142 137 132 126 121 114 98 82 64 39 21 3 353 352 346 329 321 326 338 351 360 7 12 12 2 350 348 352 354 355 356 355 354 357 359 357 360 7 11 11 11 9 6 358 351 348 347 348 349 348 347 347 346 345 342 338 334 330 324 322 323 314 282 244 230 233 239 238 236 236 228 215 210 204 186 174 172 178 179 174 170 168 166 165
148 142 137 133 127 122 117 106 93 74 42 18 1 354 353 350 343 333 325 323 326 332 343 357 8 7 355 352 355 356 356 357 356 356 359 0 360 5 12 12 7 3 3 1 355 350 347 344 344 345 344 344 345 345 341 339 337 334 331 327 322 322 323 316 284 249 238 238 239 233 227 221 212 204 201 192 180 174 178 181 176 170 169 168 167
149 143 136 132 128 124 118 113 102 76 45 15 359 1 4 359 350 342 337 332 327 326 333 346 359 6 6 6 4 360 356 357 356 356 359 1 3 9 13 8 356 351 353 355 351 346 346 349 350 348 345 344 343 341 338 336 335 334 332 331 326 321 320 322 315 291 258 241 238 232 222 215 208 201 198 197 189 182 179 179 176 173 173 172 170
149 144 137 132 130 126 121 119 117 95 53 21 11 12 12 7 358 350 346 342 338 336 338 344 354 360 3 8 8 1 356 359 2 2 2 3 6 10 11 6 357 353 351 351 349 346 346 350 353 353 352 347 343 341 339 337 337 337 337 334 331 328 325 323 324 319 292 250 232 228 222 213 205 199 195 195 196 191 183 178 175 176 177 176 172
149 144 137 133 132 128 126 129 128 116 87 36 23 20 16 8 1 356 353 349 345 344 344 347 351 350 350 356 1 358 356 3 7 5 2 3 6 8 8 5 1 357 352 350 349 347 345 348 351 354 355 352 348 346 345 342 341 342 341 339 336 335 336 335 336 338 327 284 235 220 217 212 205 200 196 193 196 195 187 178 175 176 177 176 172
147 140 135 133 132 130 132 138 137 125 96 50 31 23 18 10 3 358 355 352 351 350 348 349 350 349 349 355 358 355 356 3 4 359 357 358 2 5 5 4 2 359 354 351 352 350 345 346 349 353 356 355 353 352 350 348 347 346 344 344 342 340 342 342 340 340 339 327 287 231 213 208 205 202 198 195 195 194 188 180 176 175 176 176 177
147 140 137 135 133 134 138 140 139 128 88 47 34 27 18 9 1 357 355 352 350 351 351 348 348 352 356 359 357 355 357 360 358 355 354 354 357 2 3 2 1 359 354 351 352 352 348 347 349 352 356 357 356 355 354 353 353 351 348 347 346 342 341 341 338 335 336 336 329 296 228 207 203 202 200 198 195 192 188 183 179 179 180 180 180
147 141 138 136 137 140 142 142 141 128 89 47 29 24 18 11 1 357 357 356 353 353 354 351 352 359 4 1 356 357 2 1 357 356 357 354 354 359 1 360 1 1 356 353 352 351 350 351 351 352 355 358 358 357 356 356 356 354 351 348 347 345 341 340 341 339 336 335 335 329 298 228 204 200 203 200 196 192 188 185 183 182 184 183 180
148 142 138 139 142 143 142 145 148 135 105 61 31 23 15 10 6 2 1 3 1 358 357 355 358 6 11 7 1 2 7 6 3 1 360 357 356 359 360 360 1 1 357 354 353 352 351 352 353 353 356 359 359 358 357 356 356 355 353 351 349 348 345 342 342 343 341 337 334 333 325 290 223 204 201 201 197 192 188 186 185 185 186 183 178
146 141 139 141 144 145 145 149 151 142 127 89 39 26 14 10 10 7 5 7 7 5 1 359 0 7 12 12 10 10 10 9 6 3 1 359 358 359 360 0 1 1 359 358 359 357 355 355 356 356 358 1 1 0 359 358 356 355 355 353 351 350 348 346 345 344 343 339 334 330 327 315 270 217 201 198 197 194 190 189 188 187 186 182 176
145 142 142 144 145 146 148 150 152 149 134 101 46 18 8 10 14 11 9 10 11 10 7 3 3 6 9 10 12 11 9 6 4 3 2 1 359 359 0 1 2 3 2 1 2 2 360 358 358 358 360 3 4 4 3 1 0 359 357 356 354 353 351 349 346 343 342 340 334 328 323 316 296 245 205 195 195 193 191 192 191 189 186 182 177
145 143 144 145 146 149 150 150 153 155 142 111 74 16 6 13 18 17 14 12 11 11 11 9 9 8 7 7 8 7 5 4 4 3 3 2 0 0 1 2 3 5 3 1 1 3 2 1 360 359 0 3 5 5 4 4 4 3 2 1 359 356 353 350 347 346 347 345 338 330 323 315 300 267 217 196 192 191 189 191 193 191 187 183 181
145 144 146 147 146 148 152 154 156 157 154 149 146 59 18 22 26 25 19 13 11 12 13 12 12 11 8 6 5 5 5 5 5 5 6 5 3 3 4 5 6 7 6 4 3 3 4 3 2 1 0 2 4 6 6 5 5 5 5 5 4 1 358 355 354 354 354 352 347 339 329 317 300 273 230 198 191 193 190 189 192 193 189 187 187
146 146 146 146 145 148 155 158 157 158 159 160 150 106 45 36 34 30 24 15 12 13 15 14 13 11 9 7 6 5 6 6 6 6 8 8 6 7 8 8 7 8 9 8 6 5 5 5 4 2 2 2 5 7 8 7 6 6 6 7 6 5 3 3 2 1 360 360 358 352 343 332 316 284 232 199 190 192 192 188 188 189 189 189 191
148 148 146 145 148 154 158 158 157 159 163 163 148 108 68 46 37 34 29 18 13 14 16 15 12 10 9 8 7 7 7 8 9 9 10 11 11 11 11 11 10 9 10 11 10 8 7 6 5 4 3 3 5 8 10 9 8 7 7 7 6 7 8 10 9 8 7 8 9 7 2 359 353 335 238 197 189 189 188 186 186 188 188 189 189
150 149 147 147 153 158 160 159 159 161 162 164 150 114 75 48 40 36 28 19 16 16 16 14 11 9 9 9 9 9 9 9 10 12 13 13 14 14 14 14 14 13 12 12 11 10 8 7 7 6 4 4 5 9 11 11 10 8 7 7 6 7 11 14 15 14 14 13 13 14 17 19 19 20 22 131 190 188 186 184 184 184 186 187 185
151 149 148 151 157 161 162 161 161 160 162 164 152 122 81 47 41 35 25 19 18 18 16 13 10 8 8 8 8 9 10 9 10 11 13 14 15 15 16 16 16 15 14 13 12 11 9 8 7 7 6 5 5 8 12 13 12 10 9 7 7 9 13 16 18 18 19 17 15 17 22 25 27 28 28 29 39 159 181 183 182 180 180 181 181
152 150 151 155 160 164 165 164 163 162 161 159 148 131 86 42 35 29 22 18 15 13 13 12 9 8 9 10 9 9 9 9 10 12 13 15 16 16 16 16 16 15 15 15 14 13 11 9 8 8 8 6 6 7 10 13 13 13 11 9 9 11 14 17 18 20 21 21 21 21 24 28 31 30 30 30 31 32 46 155 176 180 180 178 177